Wind_Speed
16 16 16 13 11 12 13 12 11 9 8 8 7 5 5 6 5 6 6 4 4 4 4 1 2 1 4 6 6 6 6 4 3 2 5 8 9 9 7 6 6 7 8 8 8 10 13 13 12 11 10 10 10 9 8 7 7 7 6 6 7 8 10 11 13 14 15 16 17 18 20 21 22 23 23 23 23 23 24 25 25 26 26 26 26 26
16 18 16 13 11 10 10 9 10 10 8 8 6 4 6 7 6 7 7 5 6 6 4 4 4 1 3 4 4 3 4 2 1 2 6 10 12 11 9 8 8 8 8 8 8 9 11 11 10 10 9 8 9 8 7 6 6 6 6 6 7 8 10 12 13 14 15 17 18 19 21 22 23 23 23 23 24 24 24 25 25 26 26 26 26 26
14 16 15 12 9 8 9 8 7 8 10 10 8 7 9 8 7 7 6 5 6 7 5 5 6 3 1 1 0 1 3 4 4 4 8 12 13 12 10 8 8 9 8 7 7 7 9 9 9 9 8 7 7 7 6 6 6 6 5 6 7 9 11 12 13 14 16 18 19 21 22 23 24 24 24 24 24 24 25 25 26 26 26 25 26 26
12 13 13 12 8 7 8 8 8 10 11 10 9 10 11 11 8 6 7 7 6 5 4 4 4 4 2 2 2 2 3 5 5 5 10 14 14 13 11 9 9 9 8 7 7 7 7 8 9 8 7 6 6 6 7 6 6 6 5 6 8 10 11 12 14 16 17 19 20 22 23 24 24 24 24 24 24 24 25 25 26 26 25 25 26 27
11 11 10 11 7 8 10 8 9 12 12 9 7 9 12 11 6 3 7 10 7 4 5 6 5 6 6 5 4 3 4 5 6 8 11 14 13 12 11 9 10 10 9 9 8 6 6 9 9 8 6 5 6 6 7 6 6 6 6 7 9 11 12 13 15 17 18 20 21 22 23 24 24 24 23 23 23 24 24 25 25 25 25 26 27 27
11 11 8 9 7 8 11 10 9 10 12 10 7 8 9 7 6 5 7 10 9 6 7 9 5 5 8 8 6 5 6 7 8 10 12 14 12 11 11 9 10 11 10 9 7 5 6 9 9 7 5 4 5 6 6 6 6 6 6 7 10 11 12 14 15 17 18 19 21 21 22 22 23 22 22 22 23 24 25 25 26 26 26 27 27 27
11 12 9 8 7 7 9 10 7 6 8 10 8 7 5 5 8 9 7 8 8 6 7 8 4 4 7 10 9 8 7 7 10 12 12 12 10 10 10 9 11 13 12 10 6 5 7 8 8 7 5 4 4 6 6 6 6 6 6 8 10 12 13 14 15 17 18 19 20 21 21 22 23 23 23 24 24 25 26 26 26 26 27 27 28 27
9 11 10 8 8 9 9 10 7 5 6 7 8 7 4 3 6 6 6 8 8 5 4 5 7 7 8 9 9 11 9 9 12 12 12 10 8 8 9 10 13 14 12 8 5 5 7 7 8 7 5 4 4 6 7 6 6 6 7 8 10 12 13 14 15 16 17 18 20 21 22 23 24 24 24 25 25 25 26 26 26 26 27 27 27 26
8 9 10 8 7 8 8 8 7 4 6 7 8 7 5 3 3 3 4 6 8 7 4 2 5 6 7 7 7 11 13 12 12 11 10 9 7 7 8 9 13 14 10 7 6 6 7 8 9 7 5 4 4 6 7 7 7 6 7 8 10 12 13 14 15 16 17 18 20 21 23 24 24 24 24 25 25 25 26 26 26 26 27 27 27 26
6 5 8 7 5 6 6 5 4 3 5 9 7 4 3 5 6 5 5 7 7 4 2 2 1 3 5 6 8 12 14 12 9 8 7 8 8 7 7 8 12 11 8 8 8 7 9 9 10 9 6 5 5 7 7 7 7 6 7 8 10 12 13 14 15 16 17 18 20 21 22 23 24 24 24 24 24 25 26 26 26 26 26 27 26 25
2 4 6 6 4 5 5 4 2 1 5 9 7 1 2 5 6 6 5 8 6 2 2 3 1 3 3 5 9 10 8 7 6 6 7 6 7 7 6 8 11 8 8 9 10 10 11 11 10 10 8 6 6 7 7 7 6 6 7 8 10 11 12 13 14 16 17 18 20 21 22 23 23 23 23 23 24 25 25 25 25 25 26 26 26 25
2 5 5 4 5 5 6 5 3 1 4 6 4 1 3 3 3 6 6 6 3 2 1 4 4 4 3 3 6 9 11 11 10 9 7 6 7 8 6 8 10 7 7 8 9 10 11 10 11 11 10 9 7 6 7 7 6 6 7 8 10 11 12 13 14 15 17 18 20 21 22 22 23 23 22 22 23 24 25 25 25 25 26 26 25 24
1 2 1 1 4 4 6 5 2 0 4 4 3 3 3 2 3 4 4 2 0 1 2 5 6 4 3 1 6 9 11 14 14 12 10 7 7 8 7 8 11 6 5 8 9 9 10 10 11 11 11 10 9 8 7 7 7 6 7 8 9 11 12 13 14 15 16 18 19 20 21 22 22 22 22 22 23 24 25 25 25 25 26 25 24 22
3 2 3 4 2 2 4 3 3 2 3 5 8 7 4 3 3 1 3 2 2 2 3 6 5 3 2 3 7 6 4 8 9 10 9 6 6 7 7 10 12 7 4 7 8 8 9 9 10 10 11 11 10 8 7 7 6 6 7 8 9 10 11 12 13 14 16 17 19 20 21 21 22 22 22 22 23 24 24 24 24 25 25 24 23 22
3 2 2 2 3 4 5 7 7 8 9 8 8 8 7 6 4 1 2 1 2 3 3 5 4 3 4 5 7 5 3 3 3 8 8 5 4 5 7 11 13 8 4 6 6 6 7 7 8 10 10 11 10 8 7 7 6 6 7 8 9 10 11 12 13 14 16 17 18 19 20 21 22 22 22 22 23 24 24 24 24 24 24 24 23 22
3 1 1 4 3 2 5 8 7 8 9 7 6 5 6 7 6 4 3 1 3 3 3 5 4 4 6 6 7 8 6 3 3 7 8 6 6 6 7 12 13 8 4 5 5 5 5 6 8 9 10 11 10 8 7 7 7 6 6 8 9 9 10 12 13 14 15 16 17 19 19 20 21 21 22 22 23 23 23 23 23 24 24 24 23 22
4 3 3 5 3 2 1 4 6 6 5 5 6 4 4 5 7 5 4 1 3 1 2 5 5 5 5 3 6 9 6 2 5 7 8 7 8 8 10 13 14 10 6 5 5 5 6 7 8 9 10 11 11 10 8 7 7 6 6 7 8 9 10 11 12 13 14 16 17 18 19 20 21 21 21 21 22 23 23 23 23 23 24 24 23 21
6 7 4 6 5 3 1 1 3 6 5 3 3 2 4 2 3 2 2 2 3 1 2 4 6 6 3 2 5 8 6 3 7 9 8 8 10 11 12 14 14 13 9 6 6 6 6 7 8 9 10 11 12 11 9 7 7 7 6 7 8 9 10 11 12 13 14 15 16 17 18 19 20 20 20 21 22 22 22 23 23 23 24 24 23 21
8 8 5 6 4 4 4 6 4 3 4 2 2 3 1 1 1 1 1 1 2 1 3 4 5 6 5 4 5 8 10 8 9 11 11 11 12 13 14 14 15 14 11 7 6 6 7 7 8 9 10 11 12 11 9 7 6 6 6 6 7 8 9 10 11 12 14 15 16 17 18 19 19 20 20 21 21 22 22 22 22 22 23 24 23 21
5 3 5 6 2 3 8 10 8 3 1 3 5 7 7 5 2 1 1 1 0 0 2 3 4 4 6 5 5 7 11 12 12 13 14 14 13 14 14 15 16 14 12 8 6 6 6 7 8 9 10 11 11 11 9 7 6 5 5 6 7 8 9 10 11 12 13 14 15 16 17 18 19 19 20 21 21 21 21 21 22 22 23 23 23 21
4 4 5 4 3 5 8 8 7 3 1 4 7 9 11 8 2 3 1 2 2 1 2 0 3 6 7 5 5 5 7 10 13 15 16 16 15 14 14 14 14 13 12 8 6 6 6 7 8 9 10 11 11 11 9 6 5 5 5 6 6 7 8 10 11 11 12 14 15 16 17 17 18 18 19 20 21 21 21 21 22 22 22 23 23 21
7 6 4 3 2 3 3 3 3 1 2 2 4 5 8 8 4 3 2 4 4 3 2 3 4 9 8 6 6 5 5 7 11 13 15 16 16 15 15 14 13 12 11 9 7 6 6 6 8 9 9 10 11 11 10 7 6 5 5 5 6 7 8 9 10 11 12 13 14 15 16 17 17 18 19 20 21 21 21 22 22 22 22 22 22 21
5 5 4 2 1 5 3 3 2 1 2 3 4 5 6 4 6 5 2 2 5 6 5 4 3 7 6 6 6 6 6 7 8 10 11 13 15 15 16 16 14 12 11 10 8 7 6 7 8 8 8 9 11 11 10 8 6 6 4 5 6 7 8 9 10 10 12 13 14 15 15 16 16 17 18 19 20 20 21 21 22 22 22 22 22 21
5 5 4 3 2 3 3 3 3 4 2 4 7 8 9 6 4 5 4 5 3 7 7 4 2 4 6 8 9 8 8 7 8 9 9 10 13 15 15 16 15 12 10 10 9 8 7 7 8 7 7 9 10 10 9 7 6 6 4 3 5 6 7 8 9 10 11 12 13 14 15 15 16 17 18 19 20 20 20 21 21 21 21 22 22 21
6 6 5 4 3 3 2 0 5 7 6 8 8 8 11 8 2 1 3 3 3 7 8 5 3 4 5 7 11 12 10 10 9 9 9 10 12 14 15 15 15 13 10 9 9 9 8 8 8 6 6 8 10 10 9 7 5 5 4 3 4 5 7 8 9 10 11 12 13 13 14 15 15 16 17 18 19 19 20 20 21 21 21 22 22 21
4 7 7 5 4 2 1 3 8 11 11 11 8 7 12 11 6 5 4 3 4 6 7 6 6 7 6 6 11 13 13 13 12 10 11 12 13 15 15 15 14 13 12 10 10 9 8 8 8 6 5 7 9 10 9 7 5 5 5 5 5 6 7 8 9 10 10 11 12 13 14 14 15 16 16 18 19 19 19 19 20 21 21 21 22 21
3 7 5 3 3 2 4 5 8 10 10 10 9 9 12 11 11 11 8 4 3 4 6 7 7 9 9 8 11 13 15 15 14 13 14 12 13 16 16 15 13 13 13 13 12 10 10 10 9 7 5 6 9 9 9 9 7 6 6 5 5 6 7 7 8 9 10 10 11 12 13 14 14 15 16 17 18 18 18 19 19 20 21 21 21 21
2 5 3 2 4 5 7 7 7 7 8 9 10 11 11 9 8 8 5 2 2 5 5 5 8 10 10 10 10 12 16 16 14 15 15 13 14 16 16 15 14 13 14 15 14 12 11 11 10 7 5 6 8 9 10 10 8 7 6 6 6 6 6 7 8 9 9 10 11 12 12 13 14 14 15 17 18 18 18 18 19 20 21 21 21 21
2 4 5 4 5 6 7 9 9 10 10 9 9 8 9 11 11 7 4 3 2 5 6 8 11 12 10 9 10 11 14 15 15 14 14 14 15 15 15 15 15 14 14 14 13 12 12 12 10 7 5 5 6 8 10 10 9 9 8 7 6 6 6 7 7 8 9 9 10 11 12 13 13 14 15 17 17 17 17 17 18 19 20 21 20 20
2 4 5 4 5 6 8 10 12 14 15 14 12 9 10 13 11 7 5 5 6 7 8 9 12 13 10 8 9 10 10 12 15 16 16 15 14 14 15 16 15 14 14 14 12 11 12 13 10 6 5 5 5 7 9 10 10 10 9 7 6 6 6 6 7 7 8 9 9 11 11 12 13 13 15 17 17 17 17 17 18 19 20 20 20 20
2 2 2 5 6 6 7 9 12 14 15 17 18 16 15 16 11 6 4 5 8 9 10 9 10 11 9 7 8 10 9 9 12 14 14 13 13 13 15 16 16 15 14 14 12 10 10 11 7 4 3 3 3 6 9 10 11 11 10 8 7 6 6 6 6 7 8 8 9 10 11 12 12 13 14 16 16 16 16 16 17 18 19 20 20 20
2 1 4 7 8 8 8 8 9 10 13 16 18 17 15 14 11 8 7 8 10 12 12 10 8 7 6 6 8 11 11 9 9 11 11 12 12 13 14 16 16 16 15 14 11 9 8 8 4 3 3 3 3 5 8 10 11 11 10 9 7 6 6 6 6 6 7 8 8 9 10 11 12 12 14 15 15 15 16 16 17 18 19 19 19 19
1 2 5 8 8 8 9 9 9 9 10 12 11 8 8 9 9 10 10 10 11 13 14 11 8 8 6 6 8 11 10 10 9 9 10 11 13 14 14 14 15 15 15 14 12 10 8 6 3 2 2 2 3 4 7 9 10 11 11 9 7 6 5 5 5 6 6 7 8 8 10 10 11 12 13 14 15 15 15 16 17 18 19 19 19 19
6 6 7 9 10 10 10 10 8 5 6 8 7 6 8 9 10 12 12 12 13 14 14 11 8 8 7 5 7 8 8 9 9 9 10 11 14 16 15 13 13 13 13 13 12 11 10 8 5 3 3 3 4 4 6 8 10 11 12 10 7 6 5 5 5 5 6 6 7 8 9 9 10 11 13 14 14 15 15 15 16 17 18 18 19 19
12 10 10 12 13 13 12 9 5 4 5 8 9 10 10 10 10 12 13 12 13 13 11 9 9 10 10 8 6 5 6 7 7 8 9 11 14 15 16 15 13 11 10 11 11 10 9 7 6 5 4 4 5 5 5 7 9 11 12 11 8 7 5 4 5 5 5 6 6 7 8 8 9 10 12 13 14 14 15 15 16 16 17 18 18 18
21 18 17 17 15 13 11 8 5 5 8 12 13 11 9 7 8 11 12 10 10 8 8 8 10 11 10 7 3 4 5 5 5 7 9 10 12 12 14 15 14 11 10 11 10 7 5 4 4 4 5 5 6 6 6 7 9 11 13 12 9 7 5 4 4 4 5 5 6 6 7 7 8 9 11 12 13 14 14 14 15 15 15 16 17 17
25 25 22 20 17 14 12 11 10 10 10 11 11 8 6 5 7 9 10 8 7 6 5 8 9 7 5 4 2 4 5 5 7 10 12 12 12 10 10 11 12 11 11 11 10 7 5 4 4 4 4 5 7 7 7 7 9 11 13 12 10 7 5 4 4 4 4 4 5 5 6 6 7 8 10 11 13 14 14 14 14 14 14 15 15 16
19 22 21 20 19 17 15 12 8 7 7 8 10 9 8 8 7 8 8 7 5 3 2 5 7 5 3 4 2 4 6 8 10 13 14 13 13 12 10 9 10 11 11 12 12 9 6 5 5 5 5 6 7 8 8 8 9 10 13 13 10 7 5 4 4 3 3 4 4 4 5 6 7 8 9 11 12 14 14 14 14 14 14 14 15 15
15 19 23 25 22 18 16 13 9 7 8 10 12 11 11 12 10 8 7 5 2 1 2 1 5 6 5 6 4 4 7 11 13 14 13 12 13 14 12 10 10 11 12 12 12 10 8 8 8 8 8 7 7 8 8 9 9 11 13 13 11 8 5 4 4 3 3 3 3 3 4 5 6 7 8 10 12 13 13 13 13 13 13 14 14 15
10 14 20 25 26 23 19 15 13 12 11 11 12 11 11 12 11 7 5 4 4 3 5 5 3 6 6 7 7 8 10 12 14 13 13 13 13 12 12 12 11 11 11 12 12 11 10 10 9 8 8 7 7 7 8 9 10 11 12 12 10 7 5 4 4 4 3 2 2 2 3 5 6 7 8 9 11 13 13 13 12 12 13 13 14 15
7 9 14 20 24 26 23 18 14 13 12 11 13 12 9 8 8 9 8 7 6 5 6 6 4 6 8 9 10 11 12 13 15 14 12 11 10 10 11 13 12 10 10 11 12 11 10 9 8 7 8 9 8 8 8 9 10 11 12 12 10 7 5 4 5 4 3 1 1 2 3 4 5 6 7 9 11 12 13 13 12 12 13 13 13 14
4 5 10 15 18 18 18 15 11 10 11 11 10 9 8 9 11 13 13 13 12 10 7 6 4 6 8 10 11 12 13 15 18 18 14 12 10 10 11 12 11 9 8 9 11 11 11 9 8 7 7 8 8 8 7 8 10 11 12 12 9 7 5 5 5 4 3 1 1 1 2 4 5 5 6 8 10 11 12 13 13 12 12 12 13 14
2 3 6 9 11 10 10 9 6 4 6 7 6 6 7 9 11 11 10 12 15 13 11 11 8 6 6 9 12 14 16 18 20 20 17 13 11 10 11 12 12 10 9 8 8 9 9 8 7 7 6 7 8 8 8 9 10 11 12 11 9 7 6 6 6 5 3 2 1 1 2 3 4 5 6 7 9 10 12 13 13 12 11 12 13 13
3 4 4 5 6 6 7 6 5 5 4 3 3 4 5 5 7 8 8 10 12 13 15 17 16 11 9 10 13 16 18 18 20 22 20 16 13 11 10 11 11 11 10 9 9 9 8 8 8 8 7 7 8 8 9 10 11 12 12 10 8 7 7 7 6 5 4 3 2 1 2 3 4 5 6 7 8 10 11 12 12 12 12 12 13 14
4 4 4 5 5 6 6 5 6 7 6 3 4 6 7 6 7 8 10 11 11 12 15 17 16 13 12 13 16 18 18 18 19 22 22 19 17 14 11 11 12 12 12 11 10 9 9 9 9 9 9 9 9 9 9 10 11 11 11 9 8 8 7 8 7 6 5 4 3 2 2 3 4 5 5 7 8 9 10 10 11 11 12 13 14 15
6 6 6 7 8 8 8 8 9 10 9 7 7 10 11 11 11 12 13 14 14 15 15 16 16 16 17 20 20 20 20 19 19 21 21 21 20 17 14 13 12 12 12 11 9 9 9 9 9 9 9 10 10 9 9 10 10 11 10 9 9 8 8 8 8 7 6 5 4 3 3 3 4 4 5 6 7 8 9 9 10 11 11 13 14 15
12 11 11 11 12 12 10 10 12 14 14 12 12 12 13 14 15 15 16 17 17 18 18 18 19 20 21 23 23 21 20 20 21 21 20 19 20 19 18 16 14 12 12 10 8 8 9 9 10 10 10 10 10 10 9 9 10 10 9 9 9 9 9 9 9 8 7 6 5 4 4 4 4 4 4 4 5 6 7 8 9 10 11 12 13 14
18 17 14 13 15 16 15 15 16 17 16 16 16 15 13 13 14 15 16 17 16 17 17 18 20 21 21 22 22 21 20 19 20 20 20 19 20 21 22 20 16 14 13 11 8 9 10 10 11 12 11 10 10 9 9 9 10 9 9 9 10 10 10 10 9 9 8 7 6 6 5 5 4 4 3 2 3 4 5 6 8 9 10 11 11 12
20 19 17 16 16 17 17 18 19 20 19 18 18 17 15 14 14 14 15 16 17 17 18 19 19 20 20 19 19 20 20 19 18 18 20 21 21 21 22 22 19 16 14 12 9 9 11 12 13 13 12 12 11 9 8 8 9 9 9 10 10 10 10 10 10 9 9 8 7 7 6 6 4 4 2 1 1 2 4 5 7 8 9 9 10 11
22 21 19 20 20 20 19 19 20 22 23 23 22 21 19 19 19 18 18 19 20 20 20 21 21 20 19 18 18 19 20 20 19 20 22 23 23 22 22 22 21 18 16 13 11 11 13 14 15 15 14 13 12 10 8 8 9 8 9 10 10 10 10 10 10 10 9 9 8 8 8 7 6 5 3 2 2 3 4 5 6 7 8 9 9 10
25 25 24 24 24 24 23 22 22 24 25 26 26 26 25 25 26 25 24 24 24 24 23 23 23 22 20 20 21 22 22 22 22 23 24 25 24 23 22 21 20 18 17 15 13 12 15 16 17 17 16 15 13 10 8 8 8 8 9 10 10 10 10 10 10 10 10 9 9 9 9 8 7 6 5 4 4 4 5 6 7 7 8 9 10 10
Wind_Direction
51 52 57 65 67 62 64 73 92 109 119 131 141 149 157 152 140 151 168 176 175 198 223 188 65 169 190 188 189 192 194 192 185 244 300 313 312 306 317 339 337 341 359 10 1 359 8 12 17 21 19 21 18 9 7 13 25 30 22 23 25 19 15 16 17 15 14 13 12 11 10 10 8 6 4 3 4 3 2 2 2 2 1 360 359 357
50 49 54 67 71 64 63 81 106 113 117 128 132 152 172 157 117 114 137 153 173 195 219 229 227 186 144 167 176 206 229 240 290 287 302 311 311 310 319 330 330 335 349 4 4 356 0 7 14 18 15 15 12 4 5 17 27 25 17 21 25 22 20 19 18 17 16 15 13 13 12 11 10 8 5 5 5 4 4 3 2 3 2 1 360 358
46 51 60 72 71 60 54 65 96 101 99 108 118 146 172 162 130 123 142 155 176 198 217 220 224 246 59 142 253 312 278 290 316 304 295 303 307 308 314 320 318 327 340 356 4 344 343 5 18 15 9 8 7 4 9 21 28 22 14 20 26 26 23 20 19 19 18 17 15 14 13 12 10 8 5 6 6 5 5 3 3 4 3 2 1 0
39 48 66 80 71 48 54 70 82 80 85 96 113 133 152 160 155 152 163 174 182 197 237 228 222 257 264 227 262 316 300 285 297 284 278 292 299 299 306 311 309 319 334 349 358 335 336 8 19 13 4 1 6 10 14 21 25 19 13 20 26 26 24 20 20 20 19 18 16 15 14 12 10 8 6 6 6 5 5 4 4 4 3 4 3 3
39 49 74 85 70 45 59 80 85 80 86 91 99 123 142 161 175 155 156 177 189 200 225 200 201 242 240 238 244 252 260 256 266 265 267 280 287 297 310 313 311 317 326 344 354 336 346 12 15 12 2 353 6 15 15 18 20 15 12 21 26 25 23 21 21 21 20 18 16 15 13 11 10 7 5 6 6 6 5 4 6 6 6 7 6 5
44 58 87 91 76 61 68 84 86 80 90 89 90 123 139 151 162 156 159 177 185 193 199 186 194 240 234 244 243 232 242 238 248 260 264 271 283 306 321 321 319 321 329 344 356 352 2 11 10 11 359 347 10 20 15 14 17 14 12 21 26 24 22 22 23 22 21 19 17 15 12 11 10 6 5 7 9 9 6 6 8 8 8 9 8 6
51 67 91 98 92 85 80 83 78 67 92 90 78 105 131 150 162 163 171 190 190 185 192 198 232 270 240 246 239 231 247 238 241 259 269 278 296 314 328 337 330 328 337 349 6 14 10 9 10 9 355 348 15 23 18 12 15 13 10 21 26 23 21 23 24 23 22 20 17 14 12 12 9 6 6 9 11 10 7 8 10 9 10 11 9 6
64 72 81 98 100 92 82 77 74 69 91 83 55 65 93 153 181 184 187 203 201 170 166 213 252 269 254 253 241 232 239 233 240 257 274 294 314 316 329 339 331 337 352 6 28 27 17 17 14 8 354 355 17 25 20 11 10 10 9 20 26 23 21 22 24 22 21 20 17 14 13 12 9 7 8 11 11 10 9 10 11 11 12 12 9 7
78 71 70 88 92 85 80 71 70 69 68 61 53 59 63 80 140 162 165 183 185 166 147 204 245 267 270 265 241 225 230 241 252 261 279 309 322 319 335 335 332 351 18 43 51 33 26 26 18 10 359 355 12 24 21 8 4 7 7 16 25 24 21 22 23 22 21 20 18 15 14 13 10 8 10 12 11 9 9 10 11 12 13 13 9 8
72 67 65 73 66 58 73 77 67 50 47 43 41 61 66 62 83 101 134 153 151 146 82 44 246 276 288 264 224 212 228 251 268 268 282 324 334 328 338 332 337 8 48 60 55 43 35 31 21 15 5 356 9 20 18 5 360 4 6 13 23 25 21 20 22 21 21 21 19 16 15 13 11 10 11 12 10 8 9 11 11 13 15 13 9 9
51 65 56 54 37 37 78 113 124 53 32 30 22 33 118 80 74 74 110 141 129 74 37 52 4 261 282 261 233 227 251 285 295 276 282 326 348 346 342 333 346 24 65 59 53 46 36 32 23 18 12 4 6 11 11 4 359 1 3 10 21 24 21 20 21 21 21 20 19 17 15 14 12 11 11 11 10 8 9 12 12 14 16 14 10 11
115 80 52 52 44 56 120 143 142 97 10 3 356 8 131 106 60 52 78 119 107 16 9 24 351 274 262 274 274 282 287 287 284 282 293 329 355 359 349 337 350 25 73 65 54 44 34 28 21 17 13 7 3 4 6 3 358 357 360 8 17 22 21 20 20 21 21 20 19 17 15 14 13 12 12 12 11 9 10 12 13 15 17 16 12 13
172 86 349 162 55 71 146 159 145 87 339 355 37 75 123 109 29 22 31 59 47 257 292 329 330 298 268 308 345 325 286 274 276 273 282 313 344 355 349 336 344 10 74 72 59 45 30 20 15 13 10 5 359 359 2 359 352 352 358 3 13 20 19 19 21 21 21 21 19 17 15 13 13 13 12 12 11 10 10 12 14 15 18 17 13 14
200 157 224 205 134 118 150 129 112 102 44 67 69 67 86 78 63 7 327 342 298 288 315 325 327 323 316 347 352 342 282 279 277 259 267 296 326 343 344 332 335 350 55 66 58 43 26 14 11 10 8 4 356 352 354 350 346 350 356 359 9 17 17 18 21 22 21 21 20 18 15 13 13 14 13 12 12 11 11 13 15 16 18 16 14 15
195 159 204 165 126 132 110 92 95 83 68 67 59 59 66 61 77 188 253 207 275 301 342 347 340 320 326 337 325 304 267 282 236 222 246 275 290 309 327 330 332 335 14 50 53 39 18 3 4 5 5 4 358 352 348 340 339 349 354 355 4 12 14 17 20 22 22 21 20 18 15 13 13 14 13 12 12 11 11 14 16 17 18 16 15 17
196 160 138 109 86 97 105 97 88 71 65 65 54 59 66 51 60 106 153 193 295 310 335 340 335 304 307 319 309 295 285 268 194 207 232 252 259 268 305 330 337 332 340 24 39 26 359 346 352 356 358 360 356 354 352 338 335 346 351 353 0 7 12 17 19 21 22 22 21 18 15 13 14 14 14 12 12 11 12 15 18 18 18 16 16 19
185 157 161 154 106 30 58 88 65 37 36 72 73 78 91 49 38 81 128 49 360 20 336 332 332 326 323 309 291 291 288 229 203 219 231 245 257 272 297 320 336 340 337 357 10 358 338 335 341 342 347 354 354 355 354 338 332 340 349 352 357 2 9 16 19 20 21 22 22 19 15 14 14 14 13 12 12 12 12 16 19 19 18 16 17 20
115 117 155 188 137 92 230 202 60 19 14 60 76 93 118 77 14 75 113 44 42 43 304 311 312 316 325 313 284 275 272 227 206 220 235 246 260 280 295 307 328 343 342 339 344 338 325 326 328 327 338 350 353 353 351 339 329 334 345 349 352 358 6 16 19 19 21 22 21 19 16 14 15 14 13 13 13 12 13 16 19 20 19 17 17 20
112 110 138 183 156 123 187 207 223 347 22 33 306 290 306 3 325 91 71 18 56 8 304 296 299 291 270 282 285 257 260 253 224 229 242 249 262 279 291 302 317 334 344 337 330 329 322 321 316 315 330 344 351 353 348 336 324 329 342 344 347 355 3 14 18 19 21 22 21 19 16 15 15 13 12 12 13 13 13 17 20 22 21 18 17 20
127 127 147 171 182 155 180 203 232 258 204 215 253 268 277 292 317 66 73 295 21 158 271 300 302 267 239 260 285 261 262 265 255 254 257 260 271 280 289 302 310 326 344 343 329 321 317 317 310 311 324 337 347 351 343 331 328 333 337 336 343 353 1 12 17 19 21 21 20 19 16 16 14 12 12 12 14 13 14 18 21 23 24 20 18 19
152 137 132 161 206 199 199 228 254 256 217 238 252 264 266 256 221 93 116 292 322 207 168 131 288 268 246 257 297 284 271 278 277 276 274 272 277 278 285 299 309 322 338 344 336 321 315 313 306 308 322 333 342 347 341 337 336 329 324 329 341 350 359 11 16 17 22 21 20 19 16 15 14 11 11 12 13 13 14 19 22 23 25 22 18 20
155 143 122 142 212 256 249 245 225 154 55 329 300 298 284 254 209 122 153 249 285 273 207 168 263 287 273 259 295 306 301 303 293 285 281 278 278 277 281 291 304 320 332 337 335 324 319 313 303 308 322 329 338 344 343 343 335 317 316 326 335 347 360 10 13 15 21 22 19 19 16 15 13 11 11 13 13 13 15 19 23 24 26 23 20 21
160 150 137 135 7 360 20 131 131 52 14 19 11 359 343 277 216 189 167 260 261 249 233 205 265 301 278 239 266 292 302 308 298 292 290 283 280 279 279 284 296 315 325 326 323 318 315 304 300 312 323 326 336 344 343 337 321 309 312 322 330 345 358 7 11 13 20 22 19 18 15 14 13 10 12 14 13 14 17 21 24 25 26 25 22 22
167 140 124 125 109 77 110 135 63 20 358 2 351 338 348 350 238 239 320 333 256 214 220 230 272 297 275 254 257 270 290 300 294 296 300 293 284 281 282 287 294 304 314 322 319 311 304 295 297 313 321 322 335 344 341 328 308 298 295 305 329 347 356 4 11 12 18 22 19 16 14 13 12 10 12 14 13 14 19 22 25 25 25 25 24 23
174 150 134 123 111 101 120 19 5 3 348 339 338 329 336 357 38 350 353 341 233 212 223 235 235 258 276 269 259 261 277 289 286 285 288 290 289 287 290 295 296 295 301 320 325 315 302 290 292 307 316 320 333 342 339 329 315 303 300 309 336 353 358 3 10 11 15 20 18 15 13 12 11 10 12 14 14 15 19 23 26 26 25 25 24 23
153 151 151 140 116 107 268 326 344 348 339 325 321 325 325 327 331 321 297 212 197 215 228 233 245 263 274 268 259 259 270 280 279 270 270 279 287 289 292 296 298 295 295 308 321 319 305 288 286 299 308 316 331 340 341 343 339 323 319 326 338 354 359 0 7 10 12 18 18 13 11 12 9 9 13 15 15 16 19 23 25 25 25 24 24 23
121 137 152 175 169 215 267 310 346 360 359 339 328 341 343 328 307 296 279 232 182 200 223 238 260 273 276 275 265 259 267 277 276 265 263 274 288 292 293 294 296 295 291 293 300 309 309 295 286 291 296 308 328 340 346 356 355 332 322 327 334 349 359 359 4 8 10 14 16 11 10 11 8 8 13 16 16 17 19 23 25 25 24 23 23 23
156 137 146 196 208 229 258 275 297 327 351 352 349 5 19 4 324 303 288 274 182 187 214 254 276 279 283 293 286 264 261 269 271 263 262 275 288 291 292 292 291 290 288 288 291 300 309 302 289 284 282 296 322 341 354 3 358 337 330 332 331 342 355 357 1 7 9 11 12 10 9 9 7 8 13 16 17 17 19 23 25 24 23 22 22 22
168 153 154 172 196 213 236 251 268 291 305 313 322 347 8 356 342 336 325 317 266 250 274 291 284 280 283 295 297 277 262 264 269 264 264 275 284 286 289 291 291 291 289 288 291 297 304 303 295 282 268 281 317 345 0 7 358 340 335 331 325 336 352 356 359 5 6 7 9 8 7 7 7 8 14 16 16 17 20 22 24 24 23 21 21 21
201 170 172 203 219 225 239 250 268 289 295 292 290 301 325 330 334 346 348 348 336 312 309 298 281 279 280 281 294 296 276 261 258 254 256 268 281 288 293 293 293 294 292 290 291 294 302 308 303 278 258 270 313 348 5 10 359 343 334 324 321 335 349 353 357 2 3 2 5 7 5 5 6 10 15 16 15 17 20 22 24 25 23 20 19 20
270 201 226 282 278 268 267 266 277 292 295 287 278 279 296 308 314 324 327 329 330 327 327 315 293 286 278 268 286 301 292 269 257 255 260 273 287 295 297 295 293 293 293 293 292 290 305 320 313 264 250 272 305 349 8 11 0 346 332 323 327 337 345 350 354 359 359 358 3 6 4 2 6 11 16 16 14 16 19 21 24 25 23 20 19 20
342 318 317 318 305 293 299 300 301 303 296 287 282 280 285 292 297 301 298 299 305 309 318 328 327 319 306 285 290 296 297 297 286 275 276 287 297 302 302 301 299 295 295 298 293 285 303 333 330 233 237 272 299 347 7 8 1 348 334 327 329 333 339 346 350 353 354 354 360 5 3 2 6 12 16 15 14 16 19 21 23 24 22 19 18 19
312 308 312 313 301 295 306 309 311 317 307 299 301 300 294 291 295 298 297 297 297 298 305 316 325 330 326 309 302 301 299 300 297 294 298 302 305 308 307 307 306 302 300 302 297 283 287 315 330 272 270 302 313 337 359 5 1 349 339 333 326 326 336 341 341 347 349 350 358 4 2 2 6 12 15 15 14 17 20 22 24 23 20 18 18 20
253 256 279 291 283 283 294 294 291 292 293 302 316 323 312 302 297 298 300 302 301 298 298 300 311 325 325 310 312 311 302 300 302 305 309 307 306 305 303 302 305 305 304 304 299 289 283 287 297 306 327 346 344 339 344 354 356 349 343 337 323 321 334 334 333 340 343 346 357 3 2 3 7 13 15 14 15 18 21 24 25 23 20 18 17 19
257 253 265 274 272 274 278 276 268 242 257 294 317 325 316 295 283 291 301 307 308 299 287 288 304 313 308 305 314 310 302 308 309 304 306 307 305 301 293 291 295 301 305 305 300 295 290 286 284 289 305 330 350 349 334 337 348 348 344 338 324 317 327 326 324 334 339 343 354 2 2 3 8 14 16 15 16 19 21 24 26 25 21 19 17 16
257 256 262 265 263 262 253 235 229 251 273 293 305 315 322 311 299 302 305 312 317 303 279 287 302 301 297 303 306 281 287 298 295 299 307 313 313 304 291 288 290 293 300 306 304 298 290 285 284 289 293 308 334 343 330 326 338 344 342 336 322 311 315 315 313 324 335 341 352 359 2 5 10 15 17 16 17 19 21 24 26 26 24 22 19 17
258 254 253 254 249 245 238 232 243 263 274 285 292 298 315 327 325 316 307 307 314 302 286 304 313 305 305 329 318 270 267 256 268 292 304 311 317 311 291 284 284 286 293 298 296 290 279 274 282 293 295 301 317 325 322 318 328 336 337 331 317 304 302 304 305 315 327 336 348 357 2 7 11 15 18 17 18 20 22 23 25 25 25 25 24 22
253 244 242 246 244 239 239 239 245 256 255 264 279 286 289 294 306 312 304 296 293 293 323 336 330 321 331 353 326 261 253 258 282 306 311 310 316 310 290 275 275 280 285 289 289 287 282 282 290 301 307 304 307 311 310 311 319 328 330 325 311 297 292 293 295 300 313 329 344 354 3 10 12 16 18 17 18 21 22 21 22 23 25 26 27 25
252 246 245 247 242 232 230 230 224 234 252 269 283 285 280 282 292 305 302 280 246 200 182 265 326 335 345 352 335 292 284 292 306 318 315 307 311 305 286 268 266 274 280 284 287 284 279 281 285 293 299 299 305 308 303 303 311 318 321 317 304 289 284 285 282 282 297 320 340 354 7 14 15 17 18 17 20 23 23 21 21 22 24 26 27 27
269 256 244 240 236 232 230 230 233 247 263 277 284 282 279 285 288 285 266 218 190 209 218 225 295 340 345 343 331 311 305 308 311 313 306 303 307 300 279 264 262 272 280 284 284 279 277 279 279 282 289 294 302 305 298 297 303 308 312 310 297 281 274 270 266 266 279 307 332 354 15 21 19 18 17 17 20 23 23 22 22 23 25 26 26 27
292 260 234 229 232 232 231 233 243 259 270 278 281 279 279 283 266 247 244 234 223 233 236 235 281 313 302 302 305 297 296 307 314 311 304 303 307 301 286 274 268 272 279 278 274 271 272 278 277 277 282 285 286 291 292 292 295 299 305 302 288 271 261 255 252 252 256 279 319 355 27 29 25 22 19 17 21 23 24 23 23 25 27 27 27 28
299 245 222 222 227 228 228 234 249 267 272 275 280 274 266 265 258 256 263 257 242 237 241 251 293 315 292 285 289 291 298 313 318 313 305 304 307 305 297 284 273 272 278 273 267 262 261 266 273 273 271 272 274 277 281 283 286 292 298 294 278 258 246 242 241 240 235 239 278 15 45 36 31 29 23 19 22 25 26 26 26 28 28 28 29 30
279 246 228 225 228 227 227 234 248 266 266 272 281 270 257 258 263 267 265 249 238 233 235 246 266 285 282 285 293 298 304 314 318 313 305 301 300 302 300 288 273 272 272 258 247 246 243 244 252 251 247 253 261 262 262 269 278 287 292 286 266 245 235 234 232 227 217 208 212 119 62 46 42 38 29 25 26 29 31 31 31 31 29 28 30 31
253 254 246 227 227 234 234 227 212 207 219 228 229 232 235 243 257 267 259 247 248 253 251 251 254 255 261 282 297 301 303 310 316 313 306 297 291 292 293 284 274 274 269 247 228 227 229 226 224 224 225 233 241 244 252 262 274 285 288 276 251 231 226 226 223 217 205 197 191 145 85 65 59 52 41 35 33 33 35 34 33 33 31 31 31 31
243 234 233 229 228 233 235 219 198 207 224 228 225 241 254 253 251 254 254 251 254 258 256 252 248 248 262 280 291 296 299 304 309 310 306 302 296 290 286 282 280 279 273 255 232 225 223 217 212 212 214 219 226 235 248 260 274 285 282 261 234 219 219 221 216 205 195 193 184 149 110 89 75 66 57 47 40 38 37 36 35 35 33 32 32 32
249 242 242 246 244 237 233 228 228 237 246 245 251 267 273 266 257 255 257 260 260 258 257 255 254 262 275 282 285 289 291 294 298 302 304 304 302 297 291 287 285 281 275 262 241 228 220 210 208 211 213 216 221 230 245 262 277 283 273 245 222 212 213 216 210 199 193 191 179 156 135 118 99 85 74 59 47 42 39 36 36 36 34 33 32 31
254 256 255 257 257 252 245 238 241 251 258 257 261 270 271 268 265 260 259 264 268 268 268 267 267 272 280 284 286 286 283 282 285 290 294 298 303 304 300 293 289 283 275 262 245 234 225 213 209 213 215 218 222 229 244 264 277 278 261 232 216 210 210 210 204 196 193 189 178 165 156 144 126 109 93 72 52 41 35 34 33 34 34 32 29 28
254 257 257 258 257 254 253 250 247 253 265 273 276 275 271 266 265 262 260 262 264 265 267 268 272 277 281 284 285 282 277 276 279 284 286 288 296 305 304 297 290 281 271 261 247 234 225 216 213 215 215 217 221 228 244 264 275 271 248 222 211 209 208 204 199 197 194 189 181 175 172 166 152 138 121 89 54 33 23 21 21 24 26 26 24 23
255 256 255 256 255 251 252 256 256 256 261 266 269 269 267 262 258 256 256 256 256 258 261 264 269 275 279 281 282 280 278 278 280 280 280 279 284 294 299 295 287 277 269 263 249 229 218 215 215 214 213 215 220 228 245 266 273 262 236 216 208 207 207 202 197 198 196 190 185 185 184 182 178 170 165 157 21 6 360 360 3 7 11 14 14 14
253 255 256 258 260 258 257 263 268 266 263 261 260 259 260 261 259 254 250 250 252 253 254 259 264 267 269 272 277 281 282 283 282 279 276 275 276 283 288 288 283 276 267 258 246 225 213 212 214 214 212 214 219 227 244 263 267 252 227 213 206 205 205 201 198 200 199 192 192 196 194 194 199 202 206 232 280 318 330 337 344 348 351 355 359 1
253 253 255 259 264 265 266 268 269 267 264 263 261 260 261 265 266 262 256 255 254 252 250 253 258 259 259 263 270 276 279 282 284 282 278 276 274 275 278 278 277 275 269 259 247 227 213 212 214 214 214 216 218 224 240 254 255 242 221 209 205 203 204 201 199 203 201 194 197 205 205 205 213 221 228 247 269 290 304 315 324 330 334 337 341 344
Height
3153 3152 3151 3150 3150 3150 3149 3149 3149 3148 3149 3150 3151 3151 3152 3152 3152 3153 3153 3153 3154 3155 3155 3155 3155 3155 3155 3155 3155 3155 3154 3154 3154 3154 3154 3154 3155 3154 3154 3154 3153 3153 3152 3152 3151 3149 3148 3146 3145 3144 3143 3142 3141 3140 3140 3138 3137 3136 3135 3134 3133 3132 3131 3129 3128 3126 3124 3122 3120 3118 3116 3114 3111 3109 3107 3104 3101 3098 3095 3092 3090 3087 3084 3081 3078 3075
3153 3152 3151 3151 3151 3151 3150 3150 3150 3149 3150 3151 3151 3152 3152 3153 3153 3153 3154 3154 3154 3155 3155 3155 3155 3156 3155 3155 3155 3155 3154 3154 3154 3154 3154 3155 3155 3155 3154 3154 3154 3153 3152 3152 3151 3149 3148 3147 3146 3145 3144 3143 3142 3141 3140 3139 3138 3137 3136 3135 3134 3133 3131 3129 3128 3126 3124 3122 3120 3118 3116 3113 3111 3109 3106 3104 3101 3098 3095 3092 3089 3087 3084 3081 3078 3075
3154 3153 3152 3152 3151 3151 3151 3151 3151 3151 3151 3152 3152 3152 3152 3153 3153 3154 3154 3154 3155 3154 3154 3154 3155 3156 3156 3156 3156 3155 3154 3154 3154 3154 3155 3155 3155 3155 3155 3155 3154 3153 3152 3152 3151 3150 3149 3148 3146 3145 3145 3144 3143 3142 3141 3139 3138 3137 3136 3135 3134 3133 3131 3129 3128 3126 3124 3122 3120 3118 3115 3113 3111 3109 3106 3103 3100 3097 3094 3092 3089 3086 3084 3081 3078 3075
3154 3154 3154 3153 3152 3152 3152 3152 3152 3152 3152 3152 3152 3152 3152 3153 3153 3154 3154 3155 3155 3155 3155 3154 3155 3155 3156 3155 3155 3155 3155 3155 3155 3155 3155 3155 3155 3155 3155 3154 3153 3153 3152 3152 3152 3151 3149 3148 3146 3146 3145 3144 3143 3142 3141 3140 3138 3137 3136 3135 3134 3132 3131 3129 3127 3126 3124 3122 3119 3117 3115 3113 3111 3109 3106 3103 3100 3097 3094 3092 3089 3086 3084 3081 3078 3075
3155 3155 3155 3155 3154 3154 3153 3153 3153 3153 3152 3152 3152 3153 3153 3154 3154 3154 3155 3155 3156 3156 3155 3155 3155 3155 3155 3155 3155 3155 3155 3155 3155 3155 3155 3155 3155 3155 3155 3154 3153 3152 3152 3151 3151 3150 3149 3147 3146 3146 3145 3145 3143 3142 3141 3140 3139 3138 3137 3135 3134 3132 3131 3129 3127 3125 3123 3121 3119 3117 3115 3113 3111 3109 3107 3104 3101 3098 3095 3092 3089 3087 3084 3081 3078 3075
3156 3156 3156 3156 3156 3155 3155 3154 3154 3154 3153 3152 3153 3154 3154 3154 3154 3155 3155 3155 3156 3156 3155 3155 3156 3155 3154 3155 3155 3155 3155 3155 3155 3155 3155 3155 3155 3155 3154 3153 3152 3151 3151 3151 3150 3149 3148 3147 3146 3146 3145 3145 3143 3142 3141 3140 3139 3138 3137 3135 3134 3132 3131 3129 3127 3125 3123 3122 3120 3118 3116 3114 3112 3110 3108 3105 3101 3098 3095 3092 3089 3086 3083 3080 3078 3075
3157 3157 3157 3157 3157 3156 3156 3155 3155 3155 3154 3154 3154 3154 3154 3154 3154 3155 3155 3156 3155 3155 3155 3155 3156 3155 3154 3154 3155 3155 3155 3155 3155 3155 3155 3154 3154 3154 3153 3153 3152 3151 3150 3150 3149 3148 3147 3147 3147 3146 3146 3145 3144 3142 3141 3140 3139 3138 3137 3135 3133 3132 3131 3129 3127 3126 3124 3122 3120 3119 3117 3115 3113 3110 3107 3104 3101 3097 3094 3092 3089 3086 3083 3080 3078 3075
3158 3158 3158 3158 3157 3157 3157 3156 3155 3155 3155 3155 3154 3154 3154 3154 3154 3154 3155 3155 3155 3155 3155 3156 3156 3156 3154 3153 3154 3154 3155 3155 3154 3154 3154 3153 3153 3153 3153 3152 3151 3151 3150 3149 3148 3148 3148 3147 3147 3146 3145 3145 3143 3142 3141 3140 3139 3138 3137 3135 3133 3132 3131 3129 3127 3126 3124 3123 3121 3119 3117 3115 3112 3110 3107 3103 3100 3097 3094 3092 3089 3086 3084 3081 3078 3076
3158 3158 3159 3158 3158 3158 3157 3157 3156 3156 3156 3155 3155 3155 3155 3155 3155 3155 3155 3155 3155 3155 3156 3156 3156 3156 3154 3153 3153 3154 3154 3154 3153 3153 3153 3152 3152 3152 3152 3152 3151 3150 3150 3149 3148 3148 3148 3147 3147 3146 3145 3145 3143 3142 3141 3140 3139 3138 3137 3135 3134 3132 3131 3129 3128 3126 3125 3123 3121 3119 3117 3115 3112 3110 3106 3103 3100 3097 3095 3092 3089 3087 3084 3081 3079 3076
3159 3159 3159 3158 3158 3158 3157 3157 3157 3157 3156 3156 3156 3156 3156 3156 3155 3155 3155 3155 3155 3155 3156 3156 3155 3155 3153 3152 3152 3153 3153 3152 3152 3152 3152 3151 3151 3151 3152 3151 3151 3151 3150 3149 3149 3149 3148 3147 3147 3146 3145 3145 3143 3142 3141 3140 3139 3138 3137 3135 3134 3132 3131 3130 3128 3126 3125 3123 3121 3119 3117 3115 3113 3110 3107 3104 3101 3098 3095 3092 3089 3087 3084 3082 3079 3077
3159 3159 3159 3159 3158 3158 3158 3157 3158 3158 3157 3156 3156 3155 3156 3156 3156 3155 3155 3154 3155 3156 3156 3155 3155 3155 3153 3151 3151 3151 3151 3151 3151 3151 3151 3151 3151 3151 3151 3151 3150 3151 3150 3149 3149 3148 3148 3147 3147 3146 3145 3144 3143 3141 3140 3140 3139 3138 3137 3135 3134 3132 3131 3130 3128 3127 3125 3123 3121 3119 3117 3115 3113 3110 3107 3105 3102 3099 3096 3093 3090 3088 3085 3083 3080 3077
3159 3159 3158 3158 3158 3158 3158 3158 3158 3158 3158 3157 3157 3156 3156 3156 3155 3155 3154 3154 3156 3156 3156 3155 3154 3154 3153 3151 3150 3150 3150 3150 3150 3150 3150 3150 3150 3150 3150 3150 3150 3151 3151 3149 3149 3148 3148 3147 3147 3146 3145 3144 3143 3142 3140 3140 3139 3138 3137 3135 3134 3132 3131 3130 3128 3127 3125 3123 3121 3120 3118 3116 3114 3111 3108 3106 3103 3100 3097 3094 3091 3088 3086 3083 3081 3078
3159 3159 3158 3158 3159 3159 3158 3158 3158 3158 3158 3158 3157 3156 3156 3156 3156 3157 3156 3156 3157 3156 3155 3154 3154 3153 3152 3151 3150 3149 3148 3149 3149 3149 3150 3150 3150 3150 3150 3149 3150 3151 3151 3149 3149 3148 3147 3147 3147 3146 3145 3143 3142 3141 3140 3140 3139 3138 3136 3135 3133 3132 3131 3130 3129 3127 3125 3123 3122 3120 3118 3116 3114 3112 3109 3106 3103 3100 3097 3094 3091 3089 3086 3084 3082 3079
3159 3159 3158 3158 3159 3159 3159 3158 3158 3158 3158 3158 3157 3156 3156 3156 3158 3160 3159 3158 3157 3155 3154 3154 3153 3152 3151 3150 3149 3148 3148 3148 3148 3148 3149 3149 3149 3149 3149 3149 3149 3150 3150 3149 3148 3147 3147 3147 3147 3146 3145 3143 3142 3141 3140 3139 3139 3138 3136 3135 3133 3132 3131 3130 3129 3127 3126 3124 3122 3120 3118 3116 3114 3112 3109 3106 3104 3101 3098 3095 3092 3090 3087 3085 3083 3080
3159 3159 3158 3158 3159 3159 3159 3159 3159 3159 3158 3158 3157 3157 3156 3155 3157 3159 3159 3158 3157 3155 3154 3153 3153 3152 3151 3150 3149 3148 3147 3147 3147 3148 3149 3149 3148 3148 3149 3149 3149 3149 3149 3148 3147 3147 3147 3147 3146 3145 3144 3143 3142 3141 3140 3139 3139 3138 3136 3135 3133 3132 3131 3130 3129 3128 3126 3124 3122 3120 3118 3116 3114 3112 3110 3107 3104 3101 3098 3096 3093 3090 3088 3086 3083 3080
3159 3158 3158 3158 3159 3159 3159 3159 3159 3159 3158 3158 3158 3157 3157 3156 3156 3157 3158 3157 3156 3156 3154 3153 3153 3152 3151 3150 3148 3147 3147 3147 3146 3147 3147 3148 3148 3148 3148 3148 3148 3148 3148 3147 3147 3147 3147 3147 3146 3145 3144 3143 3142 3141 3140 3139 3138 3137 3136 3135 3134 3132 3131 3130 3129 3128 3126 3125 3122 3120 3119 3117 3115 3113 3110 3107 3104 3102 3099 3096 3094 3091 3088 3086 3084 3081
3158 3158 3158 3158 3159 3159 3159 3159 3159 3158 3158 3158 3157 3157 3157 3156 3156 3156 3157 3157 3157 3157 3155 3154 3153 3152 3151 3150 3148 3146 3146 3146 3145 3146 3147 3147 3147 3147 3147 3148 3148 3147 3146 3146 3146 3146 3146 3146 3145 3144 3143 3142 3141 3140 3139 3139 3138 3137 3136 3135 3134 3133 3131 3130 3129 3128 3127 3125 3123 3121 3119 3117 3115 3113 3111 3108 3105 3102 3100 3097 3094 3092 3089 3086 3084 3082
3156 3157 3158 3158 3158 3158 3159 3159 3159 3158 3158 3157 3157 3156 3156 3156 3156 3156 3157 3158 3159 3158 3156 3154 3153 3152 3151 3150 3148 3146 3145 3145 3145 3146 3146 3146 3146 3146 3147 3147 3147 3146 3145 3145 3145 3146 3146 3146 3145 3144 3143 3142 3141 3140 3139 3139 3138 3137 3136 3135 3134 3133 3132 3131 3129 3128 3127 3125 3123 3121 3120 3118 3116 3114 3111 3108 3106 3103 3100 3098 3095 3092 3090 3087 3085 3083
3156 3157 3158 3158 3158 3158 3159 3159 3158 3158 3158 3157 3156 3156 3156 3156 3156 3156 3157 3158 3158 3159 3158 3155 3153 3152 3151 3149 3148 3146 3145 3145 3146 3146 3146 3146 3146 3146 3146 3146 3146 3145 3145 3145 3145 3145 3146 3146 3145 3144 3143 3142 3141 3139 3139 3138 3138 3137 3136 3135 3134 3133 3132 3131 3130 3129 3127 3125 3123 3122 3120 3118 3116 3114 3112 3109 3106 3103 3101 3098 3096 3093 3091 3088 3086 3084
3155 3156 3157 3158 3158 3158 3158 3158 3157 3157 3157 3157 3156 3156 3156 3157 3156 3156 3157 3157 3157 3159 3159 3155 3153 3152 3150 3149 3148 3147 3146 3145 3145 3145 3145 3145 3145 3145 3145 3145 3145 3145 3145 3144 3144 3145 3145 3145 3145 3144 3143 3141 3140 3139 3138 3138 3137 3136 3135 3134 3134 3133 3132 3131 3130 3129 3127 3126 3124 3122 3120 3118 3116 3114 3112 3109 3107 3104 3102 3099 3097 3094 3092 3089 3087 3085
3155 3155 3157 3158 3158 3158 3157 3157 3156 3156 3157 3156 3156 3156 3156 3157 3157 3156 3157 3157 3156 3157 3158 3157 3154 3151 3149 3149 3148 3147 3146 3145 3144 3144 3144 3144 3145 3145 3145 3145 3145 3145 3144 3144 3144 3144 3145 3145 3144 3143 3142 3141 3140 3138 3138 3137 3136 3136 3135 3134 3133 3133 3132 3131 3130 3129 3127 3126 3124 3122 3120 3119 3117 3115 3112 3110 3107 3105 3102 3100 3097 3095 3092 3090 3088 3086
3154 3155 3156 3157 3158 3158 3157 3157 3157 3157 3156 3156 3156 3156 3155 3156 3156 3156 3156 3156 3155 3155 3155 3156 3153 3149 3148 3149 3148 3147 3147 3145 3144 3143 3143 3144 3143 3143 3144 3144 3145 3145 3144 3144 3144 3144 3145 3145 3144 3143 3142 3141 3139 3138 3137 3136 3136 3136 3135 3134 3133 3133 3132 3131 3130 3129 3128 3126 3124 3123 3121 3119 3117 3115 3113 3110 3108 3105 3103 3100 3098 3096 3093 3091 3089 3087
3154 3154 3155 3156 3157 3157 3157 3157 3157 3157 3157 3157 3156 3156 3155 3155 3155 3155 3155 3153 3153 3153 3153 3153 3152 3148 3147 3148 3147 3147 3146 3145 3144 3143 3143 3143 3142 3142 3143 3143 3144 3145 3144 3144 3144 3144 3144 3144 3144 3143 3142 3141 3140 3138 3137 3136 3135 3135 3135 3134 3133 3132 3132 3131 3130 3129 3128 3126 3125 3123 3121 3119 3118 3115 3113 3111 3108 3106 3104 3101 3099 3096 3094 3092 3090 3088
3153 3154 3154 3155 3156 3157 3157 3158 3158 3158 3157 3157 3156 3155 3155 3154 3154 3154 3153 3152 3152 3152 3152 3152 3151 3148 3147 3147 3147 3146 3146 3145 3144 3143 3143 3142 3142 3141 3142 3142 3143 3144 3144 3144 3143 3144 3144 3144 3143 3143 3142 3141 3140 3138 3137 3136 3136 3135 3135 3134 3133 3132 3132 3131 3130 3129 3128 3126 3125 3123 3122 3120 3118 3116 3114 3111 3109 3107 3104 3102 3100 3097 3095 3093 3091 3089
3152 3153 3154 3154 3156 3157 3158 3158 3157 3157 3157 3157 3156 3155 3154 3153 3153 3153 3153 3152 3151 3151 3151 3151 3149 3147 3147 3146 3145 3145 3145 3144 3144 3143 3143 3142 3141 3141 3141 3141 3142 3143 3143 3143 3142 3143 3143 3143 3143 3142 3142 3141 3140 3139 3138 3136 3135 3135 3134 3134 3133 3132 3131 3131 3130 3129 3128 3126 3125 3124 3122 3120 3118 3117 3114 3112 3110 3107 3105 3103 3101 3098 3096 3094 3092 3090
3152 3152 3153 3153 3155 3158 3158 3158 3157 3157 3156 3156 3156 3155 3154 3153 3152 3152 3151 3150 3150 3150 3150 3149 3148 3146 3146 3145 3144 3144 3144 3143 3143 3142 3142 3142 3141 3140 3140 3141 3141 3142 3142 3142 3142 3142 3142 3142 3142 3142 3142 3141 3140 3139 3138 3136 3135 3133 3133 3133 3133 3132 3131 3130 3130 3129 3128 3126 3125 3124 3122 3120 3119 3117 3115 3113 3110 3108 3106 3104 3101 3099 3097 3095 3092 3090
3152 3152 3153 3153 3154 3156 3157 3157 3157 3156 3156 3155 3155 3155 3153 3152 3152 3151 3150 3149 3148 3148 3148 3147 3146 3146 3145 3144 3143 3142 3142 3142 3142 3141 3141 3141 3140 3139 3139 3140 3140 3140 3141 3141 3141 3141 3142 3142 3141 3142 3142 3141 3140 3139 3137 3135 3134 3133 3133 3133 3132 3132 3131 3130 3130 3129 3128 3126 3125 3124 3123 3121 3119 3118 3116 3113 3111 3109 3106 3104 3102 3100 3098 3096 3093 3091
3151 3151 3152 3153 3153 3154 3155 3155 3156 3155 3155 3155 3155 3154 3152 3152 3152 3150 3149 3148 3147 3147 3146 3145 3145 3144 3143 3143 3142 3141 3140 3140 3140 3140 3140 3140 3140 3140 3139 3139 3139 3139 3139 3139 3140 3141 3141 3141 3141 3141 3141 3141 3140 3139 3137 3135 3134 3133 3133 3132 3132 3132 3131 3130 3130 3129 3128 3126 3125 3124 3123 3121 3120 3118 3116 3114 3112 3109 3107 3105 3103 3101 3098 3096 3094 3092
3150 3150 3151 3152 3152 3153 3154 3154 3154 3154 3154 3154 3153 3153 3152 3152 3152 3150 3149 3148 3147 3146 3145 3144 3144 3143 3142 3141 3140 3140 3139 3139 3139 3140 3140 3140 3140 3140 3139 3138 3138 3138 3138 3138 3139 3140 3140 3140 3140 3140 3140 3140 3140 3139 3137 3135 3134 3133 3133 3133 3132 3131 3131 3130 3130 3129 3128 3127 3125 3124 3123 3122 3120 3118 3116 3114 3112 3110 3108 3106 3104 3102 3099 3097 3095 3093
3149 3149 3150 3151 3151 3152 3152 3153 3153 3152 3152 3151 3151 3151 3151 3151 3151 3150 3149 3148 3147 3146 3144 3143 3143 3141 3141 3140 3140 3139 3138 3138 3138 3139 3139 3139 3139 3139 3138 3137 3137 3137 3137 3138 3138 3139 3139 3138 3138 3139 3139 3139 3139 3138 3136 3135 3134 3133 3133 3133 3132 3131 3131 3130 3130 3129 3128 3127 3126 3124 3123 3122 3120 3119 3117 3115 3113 3110 3108 3106 3104 3102 3100 3098 3096 3094
3148 3148 3149 3149 3150 3151 3151 3151 3151 3150 3150 3150 3149 3149 3149 3150 3149 3148 3148 3147 3146 3145 3144 3143 3141 3140 3140 3139 3139 3138 3137 3137 3137 3137 3138 3138 3138 3137 3136 3135 3135 3136 3136 3137 3137 3138 3137 3137 3137 3138 3138 3138 3138 3138 3136 3135 3134 3133 3133 3132 3132 3131 3131 3130 3130 3129 3128 3127 3126 3125 3123 3122 3121 3119 3117 3115 3113 3111 3109 3107 3105 3103 3101 3099 3097 3095
3147 3147 3148 3148 3149 3149 3150 3150 3150 3149 3149 3148 3147 3147 3148 3148 3147 3147 3146 3146 3145 3144 3143 3142 3140 3139 3139 3139 3138 3137 3136 3136 3136 3136 3136 3136 3136 3135 3135 3134 3134 3134 3135 3136 3136 3136 3136 3136 3136 3137 3137 3137 3137 3137 3136 3135 3134 3133 3132 3132 3132 3131 3131 3130 3130 3129 3128 3127 3126 3125 3124 3122 3121 3119 3118 3116 3114 3112 3110 3108 3106 3104 3102 3100 3098 3096
3145 3146 3146 3147 3147 3147 3148 3148 3148 3148 3148 3147 3146 3146 3146 3146 3146 3146 3145 3145 3144 3143 3142 3141 3140 3139 3138 3137 3137 3136 3135 3135 3135 3135 3135 3134 3134 3133 3133 3133 3133 3133 3134 3134 3135 3135 3135 3135 3136 3136 3136 3136 3136 3136 3135 3134 3134 3133 3132 3132 3131 3131 3131 3130 3129 3129 3128 3127 3126 3125 3124 3123 3121 3120 3118 3116 3114 3112 3110 3108 3106 3105 3103 3101 3099 3097
3144 3144 3145 3145 3145 3146 3146 3147 3147 3147 3147 3146 3145 3145 3145 3145 3144 3144 3143 3143 3143 3142 3141 3140 3139 3138 3137 3136 3136 3136 3135 3135 3134 3134 3134 3134 3133 3132 3132 3132 3132 3132 3132 3133 3133 3133 3134 3134 3135 3135 3135 3135 3135 3135 3134 3134 3133 3132 3132 3131 3131 3130 3130 3130 3129 3129 3128 3127 3127 3126 3124 3123 3122 3120 3118 3116 3115 3113 3111 3109 3107 3106 3104 3102 3100 3098
3142 3143 3143 3144 3144 3144 3144 3145 3146 3146 3144 3143 3144 3144 3143 3143 3143 3142 3142 3141 3141 3140 3139 3138 3138 3137 3136 3135 3135 3135 3135 3134 3134 3133 3133 3133 3132 3131 3130 3131 3131 3131 3131 3131 3132 3132 3132 3132 3133 3133 3133 3134 3134 3134 3133 3133 3133 3132 3131 3131 3130 3130 3129 3129 3129 3129 3128 3128 3127 3126 3125 3124 3122 3120 3119 3117 3115 3113 3111 3110 3108 3107 3105 3102 3100 3098
3140 3141 3142 3141 3142 3142 3142 3143 3143 3142 3141 3141 3142 3142 3141 3141 3141 3140 3140 3140 3140 3138 3137 3137 3136 3135 3135 3134 3134 3134 3134 3133 3133 3133 3132 3132 3131 3130 3129 3129 3129 3130 3130 3130 3131 3131 3131 3131 3131 3132 3132 3132 3133 3133 3133 3132 3132 3131 3131 3130 3130 3129 3129 3129 3128 3128 3128 3128 3127 3126 3125 3124 3122 3121 3119 3117 3116 3114 3112 3111 3109 3107 3106 3104 3102 3100
3137 3137 3139 3139 3139 3139 3139 3139 3139 3139 3139 3140 3140 3140 3140 3140 3139 3139 3139 3139 3138 3137 3136 3135 3135 3134 3133 3133 3133 3133 3132 3132 3132 3132 3131 3130 3130 3129 3128 3127 3128 3128 3129 3129 3129 3129 3129 3130 3130 3130 3131 3131 3132 3132 3132 3131 3131 3131 3130 3130 3129 3129 3129 3128 3128 3128 3128 3127 3127 3126 3125 3124 3123 3121 3120 3118 3116 3114 3113 3111 3110 3108 3107 3105 3103 3101
3133 3134 3135 3136 3136 3136 3137 3137 3137 3137 3137 3137 3138 3139 3139 3138 3138 3138 3138 3137 3136 3135 3134 3134 3134 3133 3133 3132 3132 3132 3132 3132 3132 3131 3130 3129 3129 3128 3127 3126 3126 3126 3127 3128 3128 3128 3128 3129 3129 3129 3130 3130 3131 3131 3131 3130 3130 3130 3130 3129 3129 3128 3128 3128 3128 3128 3128 3127 3127 3126 3125 3124 3123 3121 3120 3119 3117 3115 3113 3112 3110 3109 3107 3106 3104 3102
3130 3131 3132 3133 3133 3134 3135 3135 3135 3135 3135 3135 3136 3137 3137 3137 3137 3137 3136 3136 3135 3133 3133 3133 3133 3133 3132 3132 3132 3132 3132 3131 3131 3130 3129 3129 3128 3127 3126 3125 3124 3125 3125 3126 3126 3126 3127 3127 3128 3128 3129 3129 3129 3129 3129 3129 3129 3129 3129 3129 3128 3128 3127 3127 3127 3127 3127 3127 3127 3126 3125 3124 3123 3122 3120 3119 3118 3116 3114 3113 3111 3109 3108 3106 3105 3103
3128 3128 3128 3129 3130 3131 3132 3132 3132 3132 3132 3133 3134 3134 3135 3135 3135 3135 3135 3134 3133 3132 3132 3132 3132 3132 3132 3131 3131 3131 3131 3130 3129 3128 3128 3127 3126 3125 3124 3123 3123 3123 3123 3123 3124 3124 3125 3126 3126 3127 3127 3128 3128 3128 3128 3128 3129 3129 3129 3128 3128 3127 3127 3127 3127 3127 3127 3127 3126 3126 3125 3124 3123 3122 3121 3120 3118 3116 3115 3113 3112 3110 3108 3107 3105 3103
3126 3126 3126 3126 3127 3128 3129 3130 3130 3130 3130 3131 3132 3132 3133 3133 3133 3132 3132 3132 3132 3131 3131 3130 3131 3131 3131 3131 3130 3130 3129 3129 3128 3126 3126 3125 3124 3123 3122 3122 3121 3122 3122 3122 3122 3123 3124 3124 3125 3125 3126 3126 3127 3127 3127 3127 3128 3128 3128 3127 3127 3126 3126 3126 3127 3127 3127 3127 3126 3126 3125 3124 3123 3122 3121 3120 3118 3117 3115 3114 3112 3111 3109 3107 3106 3104
3125 3125 3125 3125 3126 3127 3128 3128 3128 3128 3128 3129 3129 3130 3130 3130 3130 3129 3130 3130 3131 3130 3129 3129 3129 3130 3130 3130 3129 3128 3128 3127 3126 3125 3124 3123 3122 3122 3122 3121 3121 3121 3121 3121 3121 3122 3122 3123 3123 3124 3124 3125 3126 3126 3126 3127 3127 3127 3127 3126 3126 3126 3126 3126 3126 3126 3126 3126 3126 3125 3125 3124 3123 3122 3121 3120 3119 3117 3116 3114 3113 3111 3110 3108 3107 3105
3125 3125 3125 3125 3125 3126 3126 3126 3126 3126 3126 3127 3127 3128 3128 3128 3128 3127 3128 3128 3128 3128 3128 3128 3128 3128 3128 3128 3127 3127 3126 3125 3124 3123 3122 3121 3121 3120 3121 3121 3121 3121 3120 3119 3119 3120 3120 3121 3122 3122 3123 3124 3124 3125 3125 3126 3126 3126 3126 3125 3125 3125 3125 3125 3126 3126 3126 3126 3126 3125 3124 3124 3123 3122 3121 3120 3119 3118 3117 3115 3113 3112 3110 3109 3107 3106
3124 3124 3124 3124 3125 3125 3125 3125 3125 3125 3125 3125 3126 3126 3126 3126 3126 3126 3126 3126 3126 3127 3126 3126 3126 3126 3126 3126 3125 3125 3124 3123 3122 3121 3120 3120 3120 3119 3119 3120 3120 3120 3119 3118 3117 3118 3118 3119 3120 3121 3122 3122 3123 3123 3124 3124 3125 3125 3124 3124 3124 3124 3124 3125 3125 3125 3126 3125 3125 3125 3124 3124 3123 3122 3122 3121 3120 3118 3117 3116 3114 3113 3111 3110 3108 3106
3123 3123 3123 3123 3124 3124 3124 3124 3124 3123 3123 3124 3124 3124 3124 3124 3124 3124 3124 3124 3125 3124 3124 3124 3124 3124 3124 3124 3123 3122 3122 3121 3120 3119 3118 3118 3118 3118 3118 3118 3118 3118 3117 3116 3116 3116 3116 3117 3118 3119 3120 3120 3121 3122 3122 3123 3123 3123 3123 3122 3123 3123 3123 3124 3124 3125 3125 3125 3124 3124 3124 3123 3123 3122 3122 3121 3120 3119 3118 3116 3115 3114 3112 3110 3108 3107
3121 3121 3122 3122 3122 3123 3123 3123 3123 3122 3122 3122 3123 3123 3123 3123 3122 3122 3122 3122 3122 3122 3122 3122 3122 3122 3121 3121 3121 3120 3120 3120 3119 3118 3117 3117 3117 3116 3116 3116 3116 3116 3115 3114 3114 3114 3115 3116 3117 3117 3118 3119 3119 3120 3121 3121 3121 3121 3121 3121 3122 3122 3122 3123 3124 3124 3124 3124 3124 3124 3123 3123 3122 3122 3122 3121 3120 3119 3118 3117 3116 3114 3112 3111 3109 3107
3119 3120 3120 3120 3120 3121 3121 3121 3121 3120 3120 3120 3121 3121 3121 3120 3120 3120 3120 3120 3120 3120 3120 3120 3120 3119 3119 3118 3118 3117 3117 3117 3116 3116 3115 3115 3115 3114 3114 3114 3113 3113 3113 3112 3112 3112 3113 3114 3115 3116 3116 3117 3118 3119 3119 3120 3120 3119 3120 3120 3121 3121 3121 3122 3123 3123 3123 3123 3123 3123 3123 3122 3122 3122 3122 3121 3120 3119 3118 3117 3116 3115 3113 3111 3109 3108
3117 3118 3118 3118 3118 3118 3118 3119 3119 3118 3118 3118 3118 3118 3118 3118 3118 3117 3117 3117 3117 3117 3117 3117 3116 3116 3116 3116 3115 3114 3114 3114 3114 3113 3113 3113 3113 3112 3112 3112 3111 3111 3111 3110 3110 3110 3111 3112 3113 3114 3115 3116 3116 3117 3118 3118 3118 3118 3118 3119 3119 3120 3120 3121 3121 3122 3122 3122 3122 3122 3122 3122 3122 3122 3121 3121 3120 3119 3119 3117 3116 3115 3114 3112 3110 3108
3115 3115 3116 3116 3115 3115 3116 3116 3115 3115 3115 3115 3115 3115 3115 3114 3114 3115 3115 3114 3114 3114 3113 3113 3113 3113 3113 3113 3112 3112 3111 3112 3111 3111 3110 3111 3111 3110 3110 3110 3110 3109 3109 3108 3108 3109 3110 3111 3111 3112 3113 3114 3115 3115 3116 3116 3116 3116 3117 3117 3118 3119 3119 3120 3120 3121 3121 3121 3121 3121 3121 3121 3121 3121 3121 3121 3120 3120 3119 3118 3116 3115 3114 3112 3111 3109
3114 3114 3114 3113 3112 3113 3114 3113 3112 3111 3110 3111 3112 3112 3111 3111 3111 3111 3111 3111 3111 3111 3111 3110 3110 3110 3110 3110 3109 3109 3109 3109 3109 3108 3108 3108 3108 3108 3108 3108 3108 3108 3107 3107 3107 3107 3108 3109 3109 3110 3111 3112 3113 3113 3114 3114 3114 3115 3115 3116 3116 3117 3118 3118 3119 3119 3119 3120 3120 3120 3120 3121 3121 3121 3121 3120 3120 3119 3118 3117 3116 3115 3114 3112 3111 3109
3111 3111 3111 3111 3109 3109 3110 3110 3109 3107 3107 3107 3108 3108 3108 3107 3107 3107 3107 3108 3107 3107 3107 3107 3107 3107 3107 3107 3106 3106 3106 3106 3106 3106 3105 3105 3105 3106 3106 3106 3106 3106 3106 3105 3105 3105 3106 3107 3107 3108 3109 3110 3111 3112 3112 3112 3112 3113 3114 3114 3115 3116 3116 3117 3117 3118 3118 3119 3119 3119 3119 3120 3120 3120 3120 3120 3119 3119 3118 3117 3116 3115 3113 3112 3110 3109